| time (UTC) | temp F | wind direction | speed knots | gust knots | rain 1hr in | rain 24hr in | rain mn in | humidity % | barometer mb |
| 20260507030107 | 53 | 265 | 5.2 | 11.3 | 0.01 | 0.06 | 0.06 | 92 | 1001.9 |
| 20260507024556 | 54 | 292 | 6.1 | 18.2 | 0.01 | 0.06 | 0.06 | 91 | 1002.3 |
| 20260507023049 | 55 | 274 | 3.5 | 10.4 | 0.00 | 0.05 | 0.05 | 92 | 1002.3 |
| 20260507021604 | 56 | 262 | 4.3 | 13.0 | 0.00 | 0.05 | 0.05 | 92 | 1001.7 |
| 20260507020051 | 57 | 289 | 7.0 | 13.0 | 0.00 | 0.05 | 0.05 | 92 | 1001.5 |
| 20260507014553 | 58 | 279 | 6.1 | 12.2 | 0.00 | 0.05 | 0.05 | 93 | 1001.3 |
| 20260507013039 | 58 | 248 | 5.2 | 11.3 | 0.00 | 0.05 | 0.05 | 93 | 1000.8 |
| 20260507011539 | 59 | 176 | 6.1 | 13.0 | 0.00 | 0.05 | 0.05 | 92 | 1000.8 |
| 20260507010038 | 59 | 202 | 5.2 | 8.7 | 0.00 | 0.05 | 0.05 | 92 | 1000.8 |
| 20260507004541 | 59 | 184 | 5.2 | 11.3 | 0.00 | 0.05 | 0.05 | 93 | 1000.7 |
| 20260507003036 | 59 | 159 | 6.1 | 10.4 | 0.00 | 0.05 | 0.05 | 92 | 1000.5 |
| 20260507001536 | 58 | 201 | 6.1 | 12.2 | 0.00 | 0.05 | 0.05 | 93 | 1000.5 |
| 20260507000036 | 58 | 119 | 5.2 | 10.4 | 0.00 | 0.05 | 0.05 | 93 | 1000.4 |
| 20260506234534 | 59 | 188 | 5.2 | 10.4 | 0.00 | 0.05 | 0.05 | 93 | 1000.1 |
| 20260506233034 | 59 | 185 | 4.3 | 8.7 | 0.00 | 0.05 | 0.05 | 93 | 1000.1 |
| 20260506231534 | 59 | 181 | 4.3 | 11.3 | 0.00 | 0.05 | 0.05 | 93 | 1000.2 |
| 20260506230033 | 59 | 187 | 4.3 | 12.2 | 0.00 | 0.05 | 0.05 | 92 | 1000.2 |
| 20260506224536 | 58 | 160 | 5.2 | 12.2 | 0.00 | 0.05 | 0.05 | 92 | 1000.5 |
| 20260506223031 | 59 | 161 | 7.0 | 10.4 | 0.00 | 0.05 | 0.05 | 92 | 1000.5 |
| 20260506221532 | 59 | 131 | 5.2 | 12.2 | 0.00 | 0.05 | 0.05 | 92 | 1000.5 |
| 20260506220036 | 59 | 195 | 7.0 | 13.0 | 0.00 | 0.05 | 0.05 | 92 | 1000.6 |
| 20260506214529 | 59 | 163 | 6.1 | 13.0 | 0.00 | 0.05 | 0.05 | 92 | 1000.6 |
| 20260506213028 | 59 | 142 | 5.2 | 11.3 | 0.00 | 0.05 | 0.05 | 92 | 1000.5 |
| 20260506211527 | 60 | 142 | 8.7 | 20.9 | 0.00 | 0.05 | 0.05 | 92 | 1000.5 |
| 20260506210028 | 60 | 179 | 5.2 | 16.5 | 0.01 | 0.05 | 0.05 | 92 | 1000.6 |
| 20260506204528 | 60 | 173 | 7.8 | 19.1 | 0.02 | 0.05 | 0.05 | 92 | 1000.7 |
| 20260506203025 | 60 | 161 | 8.7 | 15.6 | 0.02 | 0.05 | 0.05 | 91 | 1000.7 |
| 20260506201539 | 60 | 157 | 7.8 | 15.6 | 0.02 | 0.05 | 0.05 | 91 | 1001.1 |
| 20260506200027 | 61 | 169 | 6.1 | 13.0 | 0.01 | 0.04 | 0.04 | 91 | 1001.1 |
| 20260506194523 | 61 | 180 | 9.6 | 16.5 | 0.00 | 0.03 | 0.03 | 90 | 1001.4 |
| 20260506193025 | 61 | 155 | 5.2 | 16.5 | 0.01 | 0.03 | 0.03 | 90 | 1001.6 |
| 20260506191522 | 61 | 181 | 7.0 | 15.6 | 0.01 | 0.03 | 0.03 | 89 | 1001.3 |
| 20260506190021 | 61 | 145 | 7.0 | 13.9 | 0.02 | 0.03 | 0.03 | 88 | 1001.0 |
| 20260506184520 | 61 | 168 | 5.2 | 10.4 | 0.03 | 0.03 | 0.03 | 88 | 1001.5 |
| 20260506183019 | 61 | 137 | 4.3 | 9.6 | 0.02 | 0.02 | 0.02 | 87 | 1002.0 |
| 20260506181518 | 62 | 171 | 5.2 | 10.4 | 0.02 | 0.02 | 0.02 | 85 | 1002.1 |
| 20260506180018 | 62 | 170 | 4.3 | 8.7 | 0.01 | 0.01 | 0.01 | 83 | 1002.3 |
| 20260506174516 | 63 | 217 | 5.2 | 8.7 | 0.00 | 0.00 | 0.00 | 80 | 1002.6 |
| 20260506173016 | 64 | 237 | 6.1 | 13.9 | 0.00 | 0.00 | 0.00 | 74 | 1002.6 |
| 20260506171516 | 66 | 211 | 7.8 | 20.9 | 0.00 | 0.00 | 0.00 | 69 | 1002.5 |
| 20260506170016 | 68 | 211 | 7.0 | 16.5 | 0.00 | 0.00 | 0.00 | 65 | 1002.4 |
| 20260506164515 | 68 | 244 | 7.8 | 24.3 | 0.00 | 0.00 | 0.00 | 64 | 1002.4 |
| 20260506163029 | 68 | 202 | 6.1 | 24.3 | 0.00 | 0.00 | 0.00 | 64 | 1002.5 |
| 20260506161513 | 68 | 190 | 11.3 | 24.3 | 0.00 | 0.00 | 0.00 | 63 | 1002.6 |
| 20260506160015 | 68 | 161 | 7.0 | 18.2 | 0.00 | 0.00 | 0.00 | 63 | 1002.9 |
| 20260506154509 | 67 | 129 | 4.3 | 13.0 | 0.00 | 0.00 | 0.00 | 66 | 1003.2 |
| 20260506153008 | 67 | 192 | 5.2 | 18.2 | 0.00 | 0.00 | 0.00 | 65 | 1003.4 |
| 20260506151507 | 67 | 215 | 6.1 | 18.2 | 0.00 | 0.00 | 0.00 | 66 | 1003.6 |
| 20260506150008 | 67 | 199 | 6.1 | 13.0 | 0.00 | 0.00 | 0.00 | 68 | 1003.8 |
| 20260506144509 | 67 | 153 | 5.2 | 19.1 | 0.00 | 0.00 | 0.00 | 68 | 1003.3 |
| 20260506143014 | 67 | 133 | 7.8 | 19.1 | 0.00 | 0.00 | 0.00 | 68 | 1003.5 |
| 20260506141503 | 66 | 150 | 4.3 | 9.6 | 0.00 | 0.00 | 0.00 | 72 | 1003.4 |
| 20260506140104 | 65 | 129 | 3.5 | 8.7 | 0.00 | 0.00 | 0.00 | 74 | 1003.4 |
| 20260506134557 | 65 | 116 | 3.5 | 12.2 | 0.00 | 0.00 | 0.00 | 74 | 1003.2 |
| 20260506133100 | 64 | 140 | 4.3 | 7.0 | 0.00 | 0.00 | 0.00 | 76 | 1003.7 |
| 20260506131552 | 63 | 201 | 2.6 | 9.6 | 0.00 | 0.00 | 0.00 | 77 | 1003.7 |
| 20260506130054 | 62 | 161 | 7.0 | 13.0 | 0.00 | 0.00 | 0.00 | 78 | 1003.8 |
| 20260506124549 | 62 | 165 | 5.2 | 10.4 | 0.00 | 0.00 | 0.00 | 79 | 1003.9 |
| 20260506123049 | 61 | 132 | 2.6 | 8.7 | 0.00 | 0.00 | 0.00 | 80 | 1003.9 |
| 20260506121549 | 60 | 122 | 3.5 | 7.0 | 0.00 | 0.00 | 0.00 | 81 | 1003.7 |
| 20260506120106 | 60 | 152 | 3.5 | 8.7 | 0.00 | 0.00 | 0.00 | 81 | 1004.2 |
| 20260506114556 | 59 | 159 | 4.3 | 10.4 | 0.00 | 0.00 | 0.00 | 82 | 1004.1 |
| 20260506113044 | 59 | 153 | 5.2 | 10.4 | 0.00 | 0.00 | 0.00 | 81 | 1004.2 |
| 20260506111549 | 58 | 137 | 5.2 | 9.6 | 0.00 | 0.00 | 0.00 | 81 | 1004.3 |
| 20260506110043 | 58 | 136 | 5.2 | 9.6 | 0.00 | 0.00 | 0.00 | 82 | 1004.2 |
| 20260506104543 | 58 | 136 | 6.1 | 11.3 | 0.00 | 0.00 | 0.00 | 81 | 1004.2 |
| 20260506103036 | 58 | 130 | 5.2 | 9.6 | 0.00 | 0.00 | 0.00 | 81 | 1004.3 |
| 20260506101536 | 58 | 130 | 7.0 | 11.3 | 0.00 | 0.00 | 0.00 | 80 | 1004.0 |
| 20260506100030 | 58 | 136 | 6.1 | 10.4 | 0.00 | 0.00 | 0.00 | 79 | 1004.2 |
| 20260506094529 | 58 | 160 | 5.2 | 12.2 | 0.00 | 0.00 | 0.00 | 78 | 1004.2 |
| 20260506093039 | 59 | 99 | 5.2 | 11.3 | 0.00 | 0.00 | 0.00 | 77 | 1004.1 |
| 20260506091523 | 59 | 103 | 5.2 | 8.7 | 0.00 | 0.00 | 0.00 | 75 | 1004.0 |
| 20260506090020 | 60 | 141 | 4.3 | 7.8 | 0.00 | 0.00 | 0.00 | 74 | 1004.1 |
| 20260506084519 | 60 | 130 | 5.2 | 9.6 | 0.00 | 0.00 | 0.00 | 73 | 1004.2 |
| 20260506083017 | 60 | 154 | 5.2 | 9.6 | 0.00 | 0.00 | 0.00 | 73 | 1004.2 |
| 20260506081515 | 60 | 140 | 5.2 | 8.7 | 0.00 | 0.00 | 0.00 | 71 | 1004.2 |
| 20260506073011 | 61 | 150 | 3.5 | 7.0 | 0.00 | 0.00 | 0.00 | 69 | 1004.2 |
| 20260506071508 | 62 | 143 | 2.6 | 7.0 | 0.00 | 0.00 | 0.00 | 68 | 1004.1 |
| 20260506061505 | 62 | 208 | 7.0 | 12.2 | 0.00 | 0.00 | 0.00 | 66 | 1003.9 |
| 20260506044554 | 63 | 150 | 4.3 | 8.7 | 0.00 | 0.00 | 0.00 | 62 | 1004.5 |
| 20260506043052 | 63 | 205 | 4.3 | 8.7 | 0.00 | 0.00 | 0.00 | 62 | 1004.4 |
| 20260506041602 | 64 | 147 | 4.3 | 7.8 | 0.00 | 0.00 | 0.00 | 61 | 1004.3 |
| 20260506040047 | 65 | 114 | 3.5 | 9.6 | 0.00 | 0.00 | 0.00 | 60 | 1004.3 |
| 20260506034543 | 65 | 142 | 3.5 | 7.8 | 0.00 | 0.00 | 0.00 | 59 | 1004.3 |
| 20260506033043 | 66 | 137 | 5.2 | 8.7 | 0.00 | 0.00 | 0.00 | 58 | 1004.3 |
| 20260506031543 | 66 | 148 | 6.1 | 13.0 | 0.00 | 0.00 | 0.00 | 58 | 1004.4 |